Dunkirk, NY

11:33 AM EST on February 27, 2017 (GMT -0500)
Chautauqua County-Dunkirk

Weather History for KDKK - August, 2014

Change the Weather History Date:

Sunday, August 31, 2014

  Actual Average Record
Temperature  
Mean Temperature 74 °F -  
Max Temperature 78 °F 78 °F 98 °F (1951)
Min Temperature 68 °F 58 °F 44 °F (1976)
Cooling Degree Days 8    
Growing Degree Days 24 (Base 50)    
Moisture  
Dew Point 68 °F    
Average Humidity 86    
Maximum Humidity 96    
Minimum Humidity 66    
Precipitation  
Precipitation 0.38 in - - ()
Sea Level Pressure  
Sea Level Pressure 29.97 in    
Wind  
Wind Speed 12 mph (SSW)    
Max Wind Speed 21 mph    
Max Gust Speed 34 mph    
Visibility 8 miles    
Events Rain , Thunderstorm    
Averages and records for this station are not official NWS values.
T = Trace of Precipitation, MM = Missing Value Source: NWS Daily Summary

Daily Weather History Graph

Daily Weather History Graph

Search for Another Location

Airport or City:

Trip Planner

Search our weather history database for the weather conditions in past years. The results will help you decide how hot, cold, wet, or windy it might be!

Date:

Astronomy

Aug. 31, 2014 Rise Set
Actual Time 6:41 AM EDT 7:52 PM EDT
Civil Twilight 6:11 AM EDT 8:21 PM EDT
Nautical Twilight 5:37 AM EDT 8:56 PM EDT
Astronomical Twilight 5:00 AM EDT 9:32 PM EDT
Moon 12:33 PM EDT (8/31) 10:58 PM EDT (8/31)
Length of Visible Light 14h 09m
Length of Day
13h 11m
Waxing Crescent, 32% of the Moon is Illuminated
Aug 31
Waxing Crescent
Sep 2
First Quarter
Sep 8
Full
Sep 15
Last Quarter
Sep 24
New

Hourly Weather History & Observations

Time (EDT) Temp. Dew Point Humidity Pressure Visibility Wind Dir Wind Speed Gust Speed Precip Events Conditions
12:31 AM 79.0 °F 66.9 °F 66% 29.96 in 10.0 mi SSW 15.0 mph 26.5 mph N/A   Overcast
12:53 AM 78.1 °F 66.9 °F 68% 29.95 in 10.0 mi South 20.7 mph 28.8 mph N/A   Mostly Cloudy
1:53 AM 77.0 °F 66.0 °F 69% 29.95 in 10.0 mi SSW 11.5 mph 24.2 mph N/A   Mostly Cloudy
2:53 AM 75.9 °F 66.9 °F 74% 29.95 in 10.0 mi SSW 13.8 mph 24.2 mph N/A   Scattered Clouds
3:53 AM 72.0 °F 66.9 °F 84% 29.96 in 5.0 mi WSW 12.7 mph 34.5 mph 0.01 in Rain Light Rain
4:22 AM 72.0 °F 68.0 °F 87% 29.98 in 2.5 mi SSW 20.7 mph 28.8 mph 0.17 in Rain , Thunderstorm Heavy Thunderstorms and Rain
4:29 AM 71.1 °F 69.1 °F 93% 29.98 in 4.0 mi SSW 15.0 mph 28.8 mph 0.18 in Rain , Thunderstorm Thunderstorms and Rain
4:37 AM 72.0 °F 68.0 °F 87% 29.98 in 6.0 mi SSW 15.0 mph 27.6 mph 0.19 in Rain Light Rain
4:53 AM 72.0 °F 69.1 °F 91% 29.96 in 9.0 mi South 9.2 mph 20.7 mph 0.19 in   Mostly Cloudy
5:53 AM 72.0 °F 68.0 °F 87% 29.95 in 10.0 mi SSW 9.2 mph 21.9 mph N/A   Scattered Clouds
6:53 AM 72.0 °F 66.9 °F 84% 29.96 in 10.0 mi South 16.1 mph 24.2 mph 0.00 in Rain Light Rain
8:53 AM 72.0 °F 66.9 °F 84% 29.98 in 10.0 mi SSW 16.1 mph 26.5 mph N/A   Mostly Cloudy
9:18 AM 71.1 °F 66.9 °F 87% 29.98 in 6.0 mi South 11.5 mph 26.5 mph 0.02 in Rain Light Rain
9:38 AM 70.0 °F 66.9 °F 90% 29.99 in 2.0 mi SSW 10.4 mph - 0.08 in Rain Light Rain
9:53 AM 71.1 °F 68.0 °F 90% 29.98 in 10.0 mi South 11.5 mph 20.7 mph 0.08 in   Overcast
10:53 AM 71.1 °F 68.0 °F 90% 29.98 in 10.0 mi South 8.1 mph - N/A   Overcast
11:53 AM 72.0 °F 69.1 °F 91% 29.98 in 10.0 mi SSW 9.2 mph - N/A   Overcast
12:13 PM 73.0 °F 69.1 °F 87% 29.98 in 10.0 mi SSW 8.1 mph - N/A   Overcast
12:49 PM 73.4 °F 69.8 °F 88% 29.98 in 10.0 mi SW 10.4 mph - N/A   Overcast
12:53 PM 73.9 °F 69.1 °F 85% 29.97 in 10.0 mi SW 11.5 mph - N/A   Overcast
1:12 PM 73.9 °F 69.1 °F 85% 29.99 in 10.0 mi SW 11.5 mph - N/A   Overcast
1:27 PM 73.0 °F 69.1 °F 87% 29.99 in 9.0 mi SW 9.2 mph - 0.00 in Rain Light Rain
1:51 PM 71.6 °F 69.8 °F 94% 29.99 in 3.0 mi SW 8.1 mph - 0.05 in Rain , Thunderstorm Rain
1:53 PM 72.0 °F 69.1 °F 91% 29.98 in 3.0 mi SW 8.1 mph - 0.06 in Rain , Thunderstorm Rain
2:04 PM 71.1 °F 69.1 °F 93% 29.99 in 3.0 mi WSW 11.5 mph - 0.03 in Rain Rain
2:53 PM 73.0 °F 70.0 °F 90% 29.97 in 10.0 mi SSW 12.7 mph - 0.04 in   Scattered Clouds
3:53 PM 73.0 °F 68.0 °F 84% 29.97 in 10.0 mi SW 9.2 mph - N/A   Mostly Cloudy
4:53 PM 75.0 °F 69.1 °F 82% 29.95 in 10.0 mi SW 11.5 mph 21.9 mph N/A   Mostly Cloudy
5:53 PM 75.0 °F 68.0 °F 79% 29.96 in 9.0 mi WSW 15.0 mph 26.5 mph N/A   Partly Cloudy
6:53 PM 73.9 °F 68.0 °F 82% 29.96 in 8.0 mi SW 8.1 mph - N/A   Clear
7:53 PM 73.0 °F 69.1 °F 87% 29.98 in 8.0 mi West 5.8 mph - N/A   Scattered Clouds
8:00 PM 73.0 °F 69.1 °F 87% 29.98 in 8.0 mi WSW 3.5 mph - N/A   Mostly Cloudy
8:17 PM 71.1 °F 68.0 °F 90% 29.98 in 7.0 mi West 8.1 mph - N/A   Scattered Clouds
8:53 PM 68.0 °F 66.9 °F 96% 29.98 in 4.0 mi SSW 3.5 mph - N/A   Partly Cloudy
9:06 PM 69.1 °F 68.0 °F 96% 29.99 in 5.0 mi South 6.9 mph - N/A   Mostly Cloudy
10:16 PM 68.0 °F 66.9 °F 96% 29.99 in 6.0 mi South 4.6 mph - N/A   Scattered Clouds
10:53 PM 68.0 °F 66.9 °F 96% 29.98 in 9.0 mi Calm Calm - N/A   Clear
11:53 PM 70.0 °F 66.9 °F 90% 29.97 in 10.0 mi SSW 5.8 mph - N/A   Clear